Find Starlink 31635

NORAD ID: 59511 Int'l Des: 2024-073 Owner: SPXS Country: US Constellation: starlink operational
LEOCIRCULAR

Live Position

Loading 3D Globe...

About Starlink 31635

Description loading...

Upcoming Passes

Passes for default location (London). Set your location on the main map for personalized predictions.

Altitude History

Loading altitude history...

Two-Line Element Set

1 59511U 24073A 26125.66508816 .00001559 00000-0 66183-4 0 9991
2 59511 43.0029 355.8819 0001618 271.5907 88.4759 15.27577284114899
Epoch: May 5, 2026 • Age: 12 hours

Current Status

Altitude 485.8 km
Velocity 7.62 km/s
Sub-Earth Point -15.67°S, 91.02°W
Launch Date Apr 17, 2024
Age 2 years
Type internet

Technical Details

Classification Payload
Mass 730.00 kg
Dry Mass 700.00 kg
Total Mass 730.00 kg
Length 0.30 m
Diameter 4.10 m
Span 29.00 m
Shape Box + pan
Manufacturer SPXS
Bus Type Starlink V2M
Phase Status In Orbit
Owner/State SPXS/US

Most Searched